Time,TemperatureF,DewpointF,PressureIn,WindDirection,WindDirectionDegrees,WindSpeedMPH,WindSpeedGustMPH,Humidity,HourlyPrecipIn,Conditions,Clouds,dailyrainin,SoftwareType,DateUTC
2013-07-19 00:02:00,61.2,50.0,29.80,NNE,19,0.0,3.1,69,0.00,,---,0.00,cosweather0.1e,2013-07-19 07:02:00,
2013-07-19 00:07:00,61.2,50.0,29.80,NE,37,0.0,0.0,69,0.00,,---,0.00,cosweather0.1e,2013-07-19 07:07:00,
2013-07-19 00:12:00,60.8,50.0,29.80,NE,35,0.0,2.7,69,0.00,,---,0.00,cosweather0.1e,2013-07-19 07:12:00,
2013-07-19 00:17:00,60.4,51.8,29.80,NNE,12,0.0,2.2,70,0.00,,---,0.00,cosweather0.1e,2013-07-19 07:17:00,
2013-07-19 00:23:00,60.4,51.8,29.80,North,7,0.0,2.7,70,0.00,,---,0.00,cosweather0.1e,2013-07-19 07:23:00,
2013-07-19 00:27:00,60.4,51.8,29.80,NNW,341,0.0,2.7,71,0.00,,---,0.00,cosweather0.1e,2013-07-19 07:27:00,
2013-07-19 00:33:00,60.6,51.8,29.80,North,1,0.0,3.1,71,0.00,,---,0.00,cosweather0.1e,2013-07-19 07:33:00,
2013-07-19 00:38:00,60.6,51.8,29.80,North,0,0.0,2.7,71,0.00,,---,0.00,cosweather0.1e,2013-07-19 07:38:00,
2013-07-19 00:43:00,60.3,51.8,29.80,NE,45,0.0,3.6,71,0.00,,---,0.00,cosweather0.1e,2013-07-19 07:43:00,
2013-07-19 00:48:00,59.9,51.8,29.80,North,9,0.0,3.1,72,0.00,,---,0.00,cosweather0.1e,2013-07-19 07:48:00,
2013-07-19 00:53:00,59.7,50.0,29.80,North,1,0.0,2.7,73,0.00,,---,0.00,cosweather0.1e,2013-07-19 07:53:00,
2013-07-19 00:58:00,59.5,50.0,29.80,NNE,25,0.0,3.1,73,0.00,,---,0.00,cosweather0.1e,2013-07-19 07:58:00,
2013-07-19 01:03:00,59.4,50.0,29.80,NE,44,0.0,4.5,74,0.00,,---,0.00,cosweather0.1e,2013-07-19 08:03:00,
2013-07-19 01:08:00,59.2,51.8,29.80,NE,39,0.0,4.0,75,0.00,,---,0.00,cosweather0.1e,2013-07-19 08:08:00,
2013-07-19 01:13:00,59.2,51.8,29.76,NE,44,0.0,2.7,76,0.00,,---,0.00,cosweather0.1e,2013-07-19 08:13:00,
2013-07-19 01:18:00,59.2,51.8,29.76,North,6,0.0,2.2,76,0.00,,---,0.00,cosweather0.1e,2013-07-19 08:18:00,
2013-07-19 01:23:00,59.2,51.8,29.76,NNE,27,0.0,5.4,77,0.00,,---,0.00,cosweather0.1e,2013-07-19 08:23:00,
2013-07-19 01:28:00,59.2,51.8,29.76,NE,44,0.0,3.6,77,0.00,,---,0.00,cosweather0.1e,2013-07-19 08:28:00,
2013-07-19 01:33:00,59.2,51.8,29.76,NE,42,0.0,4.0,78,0.00,,---,0.00,cosweather0.1e,2013-07-19 08:33:00,
2013-07-19 01:38:00,59.0,51.8,29.76,NE,35,0.0,3.1,78,0.00,,---,0.00,cosweather0.1e,2013-07-19 08:38:00,
2013-07-19 01:43:00,58.8,51.8,29.76,NE,56,0.0,2.7,78,0.00,,---,0.00,cosweather0.1e,2013-07-19 08:43:00,
2013-07-19 01:48:00,58.8,51.8,29.76,NE,35,0.0,4.5,78,0.00,,---,0.00,cosweather0.1e,2013-07-19 08:48:00,
2013-07-19 01:53:00,58.8,51.8,29.76,ENE,65,0.0,5.4,79,0.00,,---,0.00,cosweather0.1e,2013-07-19 08:53:00,
2013-07-19 01:58:00,58.5,53.6,29.76,NE,34,0.0,4.9,80,0.00,,---,0.00,cosweather0.1e,2013-07-19 08:58:00,
2013-07-19 02:03:00,58.5,53.6,29.76,NE,36,0.0,3.6,80,0.00,,---,0.00,cosweather0.1e,2013-07-19 09:03:00,
2013-07-19 02:08:00,58.5,53.6,29.76,NE,35,0.0,4.9,81,0.00,,---,0.00,cosweather0.1e,2013-07-19 09:08:00,
2013-07-19 02:13:00,58.5,53.6,29.76,NE,40,0.0,5.4,81,0.00,,---,0.00,cosweather0.1e,2013-07-19 09:13:00,
2013-07-19 02:18:00,58.5,53.6,29.76,NE,43,0.0,4.0,82,0.00,,---,0.00,cosweather0.1e,2013-07-19 09:18:00,
2013-07-19 02:23:00,58.5,53.6,29.76,NE,44,0.0,4.9,82,0.00,,---,0.00,cosweather0.1e,2013-07-19 09:23:00,
2013-07-19 02:28:00,58.5,53.6,29.76,NE,56,0.0,3.1,82,0.00,,---,0.00,cosweather0.1e,2013-07-19 09:28:00,
2013-07-19 02:33:00,58.5,53.6,29.76,NE,45,0.0,2.7,83,0.00,,---,0.00,cosweather0.1e,2013-07-19 09:33:00,
2013-07-19 02:38:00,58.5,53.6,29.76,NE,42,0.0,5.4,83,0.00,,---,0.00,cosweather0.1e,2013-07-19 09:38:00,
2013-07-19 02:43:00,58.5,53.6,29.76,NE,39,0.0,4.0,83,0.00,,---,0.00,cosweather0.1e,2013-07-19 09:43:00,
2013-07-19 02:48:00,58.3,53.6,29.76,NNE,33,0.0,5.8,83,0.00,,---,0.00,cosweather0.1e,2013-07-19 09:48:00,
2013-07-19 02:53:00,58.3,53.6,29.76,NE,38,0.0,3.6,83,0.00,,---,0.00,cosweather0.1e,2013-07-19 09:53:00,
2013-07-19 02:58:00,58.1,53.6,29.76,North,11,0.0,4.9,83,0.00,,---,0.00,cosweather0.1e,2013-07-19 09:58:00,
2013-07-19 03:03:00,58.1,53.6,29.76,NE,53,0.0,2.7,84,0.00,,---,0.00,cosweather0.1e,2013-07-19 10:03:00,
2013-07-19 03:08:00,58.1,53.6,29.76,NE,50,0.0,4.0,84,0.00,,---,0.00,cosweather0.1e,2013-07-19 10:08:00,
2013-07-19 03:13:00,57.9,51.8,29.76,NNE,31,0.0,3.6,84,0.00,,---,0.00,cosweather0.1e,2013-07-19 10:13:00,
2013-07-19 03:18:00,57.9,51.8,29.76,ENE,58,0.0,3.6,84,0.00,,---,0.00,cosweather0.1e,2013-07-19 10:18:00,
2013-07-19 03:23:00,57.9,51.8,29.76,ENE,66,0.0,4.0,84,0.00,,---,0.00,cosweather0.1e,2013-07-19 10:23:00,
2013-07-19 03:28:00,57.9,51.8,29.76,NE,42,0.0,4.0,84,0.00,,---,0.00,cosweather0.1e,2013-07-19 10:28:00,
2013-07-19 03:33:00,57.9,51.8,29.76,ENE,57,0.0,5.4,84,0.00,,---,0.00,cosweather0.1e,2013-07-19 10:33:00,
2013-07-19 03:38:00,57.7,51.8,29.76,ENE,62,0.0,3.6,84,0.00,,---,0.00,cosweather0.1e,2013-07-19 10:38:00,
2013-07-19 03:43:00,57.7,51.8,29.76,NE,56,0.0,3.1,84,0.00,,---,0.00,cosweather0.1e,2013-07-19 10:43:00,
2013-07-19 03:48:00,57.9,53.6,29.76,NE,51,0.0,4.0,85,0.00,,---,0.00,cosweather0.1e,2013-07-19 10:48:00,
2013-07-19 03:53:00,57.9,53.6,29.76,NE,48,0.0,4.0,85,0.00,,---,0.00,cosweather0.1e,2013-07-19 10:53:00,
2013-07-19 03:58:00,57.9,53.6,29.76,NE,55,0.0,3.1,85,0.00,,---,0.00,cosweather0.1e,2013-07-19 10:58:00,
2013-07-19 04:03:00,58.1,55.4,29.76,NE,54,0.0,2.7,85,0.00,,---,0.00,cosweather0.1e,2013-07-19 11:03:00,
2013-07-19 04:08:00,58.1,53.6,29.76,NE,38,0.0,4.0,84,0.00,,---,0.00,cosweather0.1e,2013-07-19 11:08:00,
2013-07-19 04:13:00,58.3,53.6,29.76,NE,49,0.0,3.6,84,0.00,,---,0.00,cosweather0.1e,2013-07-19 11:13:00,
2013-07-19 04:18:00,58.3,53.6,29.76,NE,47,0.0,3.6,84,0.00,,---,0.00,cosweather0.1e,2013-07-19 11:18:00,
2013-07-19 04:23:00,58.3,53.6,29.76,ENE,59,0.0,3.6,84,0.00,,---,0.00,cosweather0.1e,2013-07-19 11:23:00,
2013-07-19 04:28:00,58.3,53.6,29.76,NNE,33,0.0,3.6,84,0.00,,---,0.00,cosweather0.1e,2013-07-19 11:28:00,
2013-07-19 04:33:00,58.5,55.4,29.76,NE,34,0.0,3.6,85,0.00,,---,0.00,cosweather0.1e,2013-07-19 11:33:00,
2013-07-19 04:38:00,58.5,55.4,29.76,NE,45,0.0,3.6,85,0.00,,---,0.00,cosweather0.1e,2013-07-19 11:38:00,
2013-07-19 04:43:00,58.5,53.6,29.76,NE,51,0.0,2.7,84,0.00,,---,0.00,cosweather0.1e,2013-07-19 11:43:00,
2013-07-19 04:48:00,58.5,53.6,29.76,NE,39,0.0,4.9,84,0.00,,---,0.00,cosweather0.1e,2013-07-19 11:48:00,
2013-07-19 04:53:00,58.5,53.6,29.76,NE,47,0.0,2.7,84,0.00,,---,0.00,cosweather0.1e,2013-07-19 11:53:00,
2013-07-19 04:58:00,58.6,53.6,29.76,ENE,61,0.0,3.1,84,0.00,,---,0.00,cosweather0.1e,2013-07-19 11:58:00,
2013-07-19 05:03:00,58.6,53.6,29.76,NNE,33,0.0,2.7,84,0.00,,---,0.00,cosweather0.1e,2013-07-19 12:03:00,
2013-07-19 05:08:00,58.8,53.6,29.76,NE,51,0.0,3.1,84,0.00,,---,0.00,cosweather0.1e,2013-07-19 12:08:00,
2013-07-19 05:13:00,58.8,53.6,29.76,NE,39,0.0,3.6,84,0.00,,---,0.00,cosweather0.1e,2013-07-19 12:13:00,
2013-07-19 05:18:00,58.8,53.6,29.76,NE,51,0.0,3.1,84,0.00,,---,0.00,cosweather0.1e,2013-07-19 12:18:00,
2013-07-19 05:24:00,59.0,53.6,29.76,NE,47,0.0,0.0,84,0.00,,---,0.00,cosweather0.1e,2013-07-19 12:24:00,
2013-07-19 05:28:00,59.0,53.6,29.76,NNE,33,0.0,0.0,84,0.00,,---,0.00,cosweather0.1e,2013-07-19 12:28:00,
2013-07-19 05:34:00,59.0,53.6,29.76,NE,48,0.0,2.7,84,0.00,,---,0.00,cosweather0.1e,2013-07-19 12:34:00,
2013-07-19 05:39:00,59.0,53.6,29.76,NNE,19,0.0,2.7,84,0.00,,---,0.00,cosweather0.1e,2013-07-19 12:39:00,
2013-07-19 05:44:00,59.2,53.6,29.76,NE,47,0.0,0.0,84,0.00,,---,0.00,cosweather0.1e,2013-07-19 12:44:00,
2013-07-19 05:49:00,59.2,53.6,29.76,NE,51,0.0,0.0,84,0.00,,---,0.00,cosweather0.1e,2013-07-19 12:49:00,
2013-07-19 05:54:00,59.4,53.6,29.76,NE,49,0.0,0.0,84,0.00,,---,0.00,cosweather0.1e,2013-07-19 12:54:00,
2013-07-19 05:59:00,59.2,53.6,29.76,NE,47,0.0,3.1,83,0.00,,---,0.00,cosweather0.1e,2013-07-19 12:59:00,
2013-07-19 06:04:00,59.2,53.6,29.76,NE,47,0.0,2.2,83,0.00,,---,0.00,cosweather0.1e,2013-07-19 13:04:00,
2013-07-19 06:09:00,59.4,53.6,29.76,NE,36,0.0,3.1,83,0.00,,---,0.00,cosweather0.1e,2013-07-19 13:09:00,
2013-07-19 06:14:00,59.2,53.6,29.76,NE,38,0.0,3.6,83,0.00,,---,0.00,cosweather0.1e,2013-07-19 13:14:00,
2013-07-19 06:19:00,59.4,53.6,29.76,NE,34,0.0,4.0,83,0.00,,---,0.00,cosweather0.1e,2013-07-19 13:19:00,
2013-07-19 06:24:00,59.2,53.6,29.76,NE,41,0.0,2.7,83,0.00,,---,0.00,cosweather0.1e,2013-07-19 13:24:00,
2013-07-19 06:26:00,59.2,53.6,29.76,NNE,32,0.0,3.1,83,0.00,,---,0.00,cosweather0.1e,2013-07-19 13:26:00,
2013-07-19 06:31:00,59.2,53.6,29.76,NNE,24,0.0,3.6,83,0.00,,---,0.00,cosweather0.1e,2013-07-19 13:31:00,
2013-07-19 06:36:00,59.2,53.6,29.76,ENE,64,0.0,3.1,83,0.00,,---,0.00,cosweather0.1e,2013-07-19 13:36:00,
2013-07-19 06:41:00,59.2,53.6,29.76,NE,34,0.0,2.2,83,0.00,,---,0.00,cosweather0.1e,2013-07-19 13:41:00,
2013-07-19 06:46:00,59.2,53.6,29.76,NNE,25,0.0,3.1,84,0.00,,---,0.00,cosweather0.1e,2013-07-19 13:46:00,
2013-07-19 06:51:00,59.2,53.6,29.76,NE,34,0.0,3.6,84,0.00,,---,0.00,cosweather0.1e,2013-07-19 13:51:00,
2013-07-19 06:56:00,59.2,53.6,29.76,NNE,16,0.0,3.1,84,0.00,,---,0.00,cosweather0.1e,2013-07-19 13:56:00,
2013-07-19 07:01:00,59.2,53.6,29.76,NNE,25,0.0,2.7,84,0.00,,---,0.00,cosweather0.1e,2013-07-19 14:01:00,
2013-07-19 07:06:00,59.2,53.6,29.76,ENE,62,0.0,3.6,84,0.00,,---,0.00,cosweather0.1e,2013-07-19 14:06:00,
2013-07-19 07:11:00,59.2,53.6,29.76,ENE,62,0.0,0.0,84,0.00,,---,0.00,cosweather0.1e,2013-07-19 14:11:00,
2013-07-19 07:16:00,59.4,53.6,29.76,ENE,61,0.0,0.0,84,0.00,,---,0.00,cosweather0.1e,2013-07-19 14:16:00,
2013-07-19 07:21:00,59.5,53.6,29.76,NNW,345,0.0,0.0,84,0.00,,---,0.00,cosweather0.1e,2013-07-19 14:21:00,
2013-07-19 07:26:00,59.9,55.4,29.76,North,0,0.0,0.0,84,0.00,,---,0.00,cosweather0.1e,2013-07-19 14:26:00,
2013-07-19 07:31:00,59.9,55.4,29.76,NNE,20,0.0,3.1,84,0.00,,---,0.00,cosweather0.1e,2013-07-19 14:31:00,
2013-07-19 07:36:00,60.1,55.4,29.76,NNE,22,0.0,0.0,83,0.00,,---,0.00,cosweather0.1e,2013-07-19 14:36:00,
2013-07-19 07:41:00,60.4,55.4,29.76,WNW,299,0.0,4.0,84,0.00,,---,0.00,cosweather0.1e,2013-07-19 14:41:00,
2013-07-19 07:46:00,60.6,55.4,29.76,WNW,295,0.0,3.6,83,0.00,,---,0.00,cosweather0.1e,2013-07-19 14:46:00,
2013-07-19 07:51:00,60.8,55.4,29.76,NW,307,0.0,5.8,83,0.00,,---,0.00,cosweather0.1e,2013-07-19 14:51:00,
2013-07-19 07:56:00,61.0,55.4,29.76,NW,316,0.0,0.0,83,0.00,,---,0.00,cosweather0.1e,2013-07-19 14:56:00,
2013-07-19 08:01:00,61.2,55.4,29.76,NW,319,0.0,3.1,82,0.00,,---,0.00,cosweather0.1e,2013-07-19 15:01:00,
2013-07-19 08:06:00,61.3,55.4,29.76,NNW,332,0.0,3.6,82,0.00,,---,0.00,cosweather0.1e,2013-07-19 15:06:00,
2013-07-19 08:11:00,61.5,55.4,29.76,WNW,300,0.0,3.1,81,0.00,,---,0.00,cosweather0.1e,2013-07-19 15:11:00,
2013-07-19 08:16:00,61.7,57.2,29.76,NNW,348,0.0,0.0,81,0.00,,---,0.00,cosweather0.1e,2013-07-19 15:16:00,
2013-07-19 08:21:00,61.9,57.2,29.76,NW,310,0.0,0.0,81,0.00,,---,0.00,cosweather0.1e,2013-07-19 15:21:00,
2013-07-19 08:26:00,62.1,57.2,29.76,WSW,246,0.0,0.0,81,0.00,,---,0.00,cosweather0.1e,2013-07-19 15:26:00,
2013-07-19 08:31:00,62.1,57.2,29.76,WNW,291,0.0,2.2,81,0.00,,---,0.00,cosweather0.1e,2013-07-19 15:31:00,
2013-07-19 08:36:00,62.6,57.2,29.76,WNW,300,0.0,2.7,80,0.00,,---,0.00,cosweather0.1e,2013-07-19 15:36:00,
2013-07-19 08:41:00,62.8,57.2,29.76,NW,306,0.0,2.7,80,0.00,,---,0.00,cosweather0.1e,2013-07-19 15:41:00,
2013-07-19 08:46:00,63.1,57.2,29.76,WNW,283,0.0,3.6,80,0.00,,---,0.00,cosweather0.1e,2013-07-19 15:46:00,
2013-07-19 08:51:00,63.3,55.4,29.76,West,277,0.0,0.0,79,0.00,,---,0.00,cosweather0.1e,2013-07-19 15:51:00,
2013-07-19 08:56:00,63.5,57.2,29.76,WNW,286,0.0,0.0,79,0.00,,---,0.00,cosweather0.1e,2013-07-19 15:56:00,
2013-07-19 09:01:00,63.7,57.2,29.76,NW,323,0.0,5.8,78,0.00,,---,0.00,cosweather0.1e,2013-07-19 16:01:00,
2013-07-19 09:02:00,63.7,57.2,29.76,WNW,294,0.0,6.3,78,0.00,,---,0.00,cosweather0.1e,2013-07-19 16:02:00,
2013-07-19 09:07:00,63.9,57.2,29.76,WNW,283,0.0,4.5,77,0.00,,---,0.00,cosweather0.1e,2013-07-19 16:07:00,
2013-07-19 09:13:00,63.9,57.2,29.76,NNW,335,0.0,2.2,77,0.00,,---,0.00,cosweather0.1e,2013-07-19 16:13:00,
2013-07-19 09:18:00,64.0,57.2,29.76,WNW,286,0.0,2.7,76,0.00,,---,0.00,cosweather0.1e,2013-07-19 16:18:00,
2013-07-19 09:23:00,64.2,57.2,29.76,NNW,329,0.0,4.0,76,0.00,,---,0.00,cosweather0.1e,2013-07-19 16:23:00,
2013-07-19 09:28:00,64.4,57.2,29.76,WNW,294,0.0,0.0,75,0.00,,---,0.00,cosweather0.1e,2013-07-19 16:28:00,
2013-07-19 09:33:00,64.4,57.2,29.76,North,2,0.0,3.1,75,0.00,,---,0.00,cosweather0.1e,2013-07-19 16:33:00,
2013-07-19 09:38:00,64.8,55.4,29.76,NW,305,0.0,0.0,74,0.00,,---,0.00,cosweather0.1e,2013-07-19 16:38:00,
2013-07-19 09:43:00,64.8,55.4,29.76,North,0,0.0,2.2,73,0.00,,---,0.00,cosweather0.1e,2013-07-19 16:43:00,
2013-07-19 09:48:00,65.1,55.4,29.76,NNW,334,0.0,2.7,72,0.00,,---,0.00,cosweather0.1e,2013-07-19 16:48:00,
2013-07-19 09:53:00,65.1,55.4,29.76,NNW,342,0.0,2.7,72,0.00,,---,0.00,cosweather0.1e,2013-07-19 16:53:00,
2013-07-19 09:58:00,65.3,57.2,29.76,South,185,0.0,4.0,72,0.00,,---,0.00,cosweather0.1e,2013-07-19 16:58:00,
2013-07-19 10:03:00,65.1,55.4,29.76,NW,306,0.0,4.0,71,0.00,,---,0.00,cosweather0.1e,2013-07-19 17:03:00,
2013-07-19 10:08:00,65.5,57.2,29.76,WNW,302,0.0,3.1,71,0.00,,---,0.00,cosweather0.1e,2013-07-19 17:08:00,
2013-07-19 10:13:00,65.5,57.2,29.76,NW,316,0.0,5.4,71,0.00,,---,0.00,cosweather0.1e,2013-07-19 17:13:00,
2013-07-19 10:18:00,65.5,57.2,29.76,West,274,0.0,2.7,71,0.00,,---,0.00,cosweather0.1e,2013-07-19 17:18:00,
2013-07-19 10:23:00,65.7,55.4,29.76,WNW,303,0.0,4.0,70,0.00,,---,0.00,cosweather0.1e,2013-07-19 17:23:00,
2013-07-19 10:28:00,66.0,55.4,29.76,North,0,0.0,0.0,70,0.00,,---,0.00,cosweather0.1e,2013-07-19 17:28:00,
2013-07-19 10:33:00,66.2,55.4,29.76,WNW,288,0.0,5.8,69,0.00,,---,0.00,cosweather0.1e,2013-07-19 17:33:00,
2013-07-19 10:38:00,66.4,55.4,29.76,WNW,300,0.0,5.8,69,0.00,,---,0.00,cosweather0.1e,2013-07-19 17:38:00,
2013-07-19 10:43:00,66.7,55.4,29.76,WNW,283,0.0,4.0,69,0.00,,---,0.00,cosweather0.1e,2013-07-19 17:43:00,
2013-07-19 10:48:00,67.1,57.2,29.76,West,277,0.0,5.4,68,0.00,,---,0.00,cosweather0.1e,2013-07-19 17:48:00,
2013-07-19 10:53:00,67.5,57.2,29.76,WNW,292,0.0,7.2,67,0.00,,---,0.00,cosweather0.1e,2013-07-19 17:53:00,
2013-07-19 10:58:00,68.0,55.4,29.76,WNW,301,0.0,2.7,65,0.00,,---,0.00,cosweather0.1e,2013-07-19 17:58:00,
2013-07-19 11:03:00,68.4,55.4,29.76,North,4,0.0,3.6,63,0.00,,---,0.00,cosweather0.1e,2013-07-19 18:03:00,
2013-07-19 11:08:00,68.5,55.4,29.76,SW,221,0.0,3.6,64,0.00,,---,0.00,cosweather0.1e,2013-07-19 18:08:00,
2013-07-19 11:13:00,69.1,57.2,29.76,NW,313,0.0,8.1,64,0.00,,---,0.00,cosweather0.1e,2013-07-19 18:13:00,
2013-07-19 11:18:00,69.3,57.2,29.76,SW,235,0.0,2.7,63,0.00,,---,0.00,cosweather0.1e,2013-07-19 18:18:00,
2013-07-19 11:23:00,69.6,55.4,29.76,West,275,0.0,3.1,62,0.00,,---,0.00,cosweather0.1e,2013-07-19 18:23:00,
2013-07-19 11:28:00,70.0,55.4,29.76,South,171,0.0,4.9,61,0.00,,---,0.00,cosweather0.1e,2013-07-19 18:28:00,
2013-07-19 11:33:00,70.5,55.4,29.76,WSW,251,0.0,3.1,61,0.00,,---,0.00,cosweather0.1e,2013-07-19 18:33:00,
2013-07-19 11:38:00,70.9,57.2,29.76,WNW,288,0.0,4.0,59,0.00,,---,0.00,cosweather0.1e,2013-07-19 18:38:00,
2013-07-19 11:43:00,71.4,55.4,29.76,WSW,242,0.0,5.8,58,0.00,,---,0.00,cosweather0.1e,2013-07-19 18:43:00,
2013-07-19 11:48:00,71.8,55.4,29.76,NNW,342,0.0,4.0,58,0.00,,---,0.00,cosweather0.1e,2013-07-19 18:48:00,
2013-07-19 11:53:00,72.3,55.4,29.76,SW,233,0.0,4.0,57,0.00,,---,0.00,cosweather0.1e,2013-07-19 18:53:00,
2013-07-19 11:58:00,72.7,57.2,29.76,WNW,297,0.0,3.1,56,0.00,,---,0.00,cosweather0.1e,2013-07-19 18:58:00,
2013-07-19 12:03:00,73.0,57.2,29.76,SW,218,0.0,2.7,55,0.00,,---,0.00,cosweather0.1e,2013-07-19 19:03:00,
2013-07-19 12:08:00,73.6,55.4,29.72,West,274,0.0,4.0,53,0.00,,---,0.00,cosweather0.1e,2013-07-19 19:08:00,
2013-07-19 12:13:00,73.6,53.6,29.72,South,188,0.0,5.8,49,0.00,,---,0.00,cosweather0.1e,2013-07-19 19:13:00,
2013-07-19 12:18:00,73.9,53.6,29.72,NE,41,0.0,3.1,49,0.00,,---,0.00,cosweather0.1e,2013-07-19 19:18:00,
2013-07-19 12:23:00,74.5,53.6,29.72,NW,319,0.0,4.0,48,0.00,,---,0.00,cosweather0.1e,2013-07-19 19:23:00,
2013-07-19 12:29:00,75.0,55.4,29.72,SW,220,0.0,3.1,49,0.00,,---,0.00,cosweather0.1e,2013-07-19 19:29:00,
2013-07-19 12:34:00,75.4,53.6,29.72,WNW,285,0.0,3.6,46,0.00,,---,0.00,cosweather0.1e,2013-07-19 19:34:00,
2013-07-19 12:39:00,75.9,51.8,29.72,NW,305,0.0,3.1,45,0.00,,---,0.00,cosweather0.1e,2013-07-19 19:39:00,
2013-07-19 12:44:00,76.5,55.4,29.72,West,275,0.0,4.0,46,0.00,,---,0.00,cosweather0.1e,2013-07-19 19:44:00,
2013-07-19 12:49:00,76.8,53.6,29.72,SSW,205,0.0,6.3,43,0.00,,---,0.00,cosweather0.1e,2013-07-19 19:49:00,
2013-07-19 12:54:00,77.0,53.6,29.72,NW,324,0.0,4.0,43,0.00,,---,0.00,cosweather0.1e,2013-07-19 19:54:00,
2013-07-19 12:59:00,77.4,53.6,29.72,SW,222,0.0,2.7,43,0.00,,---,0.00,cosweather0.1e,2013-07-19 19:59:00,
2013-07-19 13:04:00,77.9,55.4,29.72,NW,305,0.0,4.0,43,0.00,,---,0.00,cosweather0.1e,2013-07-19 20:04:00,
2013-07-19 13:09:00,78.1,55.4,29.72,NW,306,0.0,3.6,43,0.00,,---,0.00,cosweather0.1e,2013-07-19 20:09:00,
2013-07-19 13:14:00,78.1,53.6,29.72,SW,229,0.0,6.3,42,0.00,,---,0.00,cosweather0.1e,2013-07-19 20:14:00,
2013-07-19 13:19:00,78.4,53.6,29.72,WSW,239,0.0,6.3,42,0.00,,---,0.00,cosweather0.1e,2013-07-19 20:19:00,
2013-07-19 13:24:00,78.8,53.6,29.68,NW,315,0.0,4.9,42,0.00,,---,0.00,cosweather0.1e,2013-07-19 20:24:00,
2013-07-19 13:29:00,79.0,53.6,29.68,WSW,243,0.0,4.0,41,0.00,,---,0.00,cosweather0.1e,2013-07-19 20:29:00,
2013-07-19 13:34:00,79.3,53.6,29.68,SSW,209,0.0,5.4,41,0.00,,---,0.00,cosweather0.1e,2013-07-19 20:34:00,
2013-07-19 13:39:00,79.5,53.6,29.68,WNW,300,0.0,3.1,41,0.00,,---,0.00,cosweather0.1e,2013-07-19 20:39:00,
2013-07-19 13:44:00,79.7,53.6,29.68,NW,305,0.0,2.7,40,0.00,,---,0.00,cosweather0.1e,2013-07-19 20:44:00,
2013-07-19 13:49:00,79.9,53.6,29.68,WNW,289,0.0,5.4,39,0.00,,---,0.00,cosweather0.1e,2013-07-19 20:49:00,
2013-07-19 13:54:00,79.9,53.6,29.68,WNW,287,0.0,5.4,40,0.00,,---,0.00,cosweather0.1e,2013-07-19 20:54:00,
2013-07-19 14:00:00,80.4,53.6,29.68,WSW,237,0.0,8.1,39,0.00,,---,0.00,cosweather0.1e,2013-07-19 21:00:00,
2013-07-19 14:05:00,80.2,53.6,29.68,NNW,329,0.0,5.8,38,0.00,,---,0.00,cosweather0.1e,2013-07-19 21:05:00,
2013-07-19 14:10:00,80.2,51.8,29.68,NNW,328,0.0,4.0,37,0.00,,---,0.00,cosweather0.1e,2013-07-19 21:10:00,
2013-07-19 14:15:00,80.2,53.6,29.68,NW,307,0.0,5.8,38,0.00,,---,0.00,cosweather0.1e,2013-07-19 21:15:00,
2013-07-19 14:20:00,80.4,53.6,29.68,WNW,300,0.0,6.3,39,0.00,,---,0.00,cosweather0.1e,2013-07-19 21:20:00,
2013-07-19 14:25:00,80.6,51.8,29.68,West,263,0.0,5.4,37,0.00,,---,0.00,cosweather0.1e,2013-07-19 21:25:00,
2013-07-19 14:30:00,80.8,51.8,29.68,SW,222,0.0,8.7,37,0.00,,---,0.00,cosweather0.1e,2013-07-19 21:30:00,
2013-07-19 14:35:00,81.0,51.8,29.68,West,279,0.0,4.0,36,0.00,,---,0.00,cosweather0.1e,2013-07-19 21:35:00,
2013-07-19 14:40:00,81.1,51.8,29.65,West,259,0.0,8.7,36,0.00,,---,0.00,cosweather0.1e,2013-07-19 21:40:00,
2013-07-19 14:45:00,81.3,50.0,29.65,North,357,0.0,2.2,34,0.00,,---,0.00,cosweather0.1e,2013-07-19 21:45:00,
2013-07-19 14:50:00,81.5,51.8,29.65,NW,307,0.0,3.1,35,0.00,,---,0.00,cosweather0.1e,2013-07-19 21:50:00,
2013-07-19 14:55:00,81.7,51.8,29.65,NW,307,0.0,6.7,34,0.00,,---,0.00,cosweather0.1e,2013-07-19 21:55:00,
2013-07-19 15:00:00,81.9,51.8,29.65,West,279,0.0,3.6,34,0.00,,---,0.00,cosweather0.1e,2013-07-19 22:00:00,
2013-07-19 15:05:00,81.7,51.8,29.65,South,170,0.0,3.6,34,0.00,,---,0.00,cosweather0.1e,2013-07-19 22:05:00,
2013-07-19 15:10:00,82.0,51.8,29.65,WNW,303,0.0,4.9,34,0.00,,---,0.00,cosweather0.1e,2013-07-19 22:10:00,
2013-07-19 15:15:00,82.2,51.8,29.65,West,278,0.0,5.4,34,0.00,,---,0.00,cosweather0.1e,2013-07-19 22:15:00,
2013-07-19 15:20:00,82.2,50.0,29.65,NW,308,0.0,6.3,33,0.00,,---,0.00,cosweather0.1e,2013-07-19 22:20:00,
2013-07-19 15:25:00,82.6,50.0,29.65,West,280,0.0,4.0,33,0.00,,---,0.00,cosweather0.1e,2013-07-19 22:25:00,
2013-07-19 15:30:00,82.8,50.0,29.65,WNW,299,0.0,5.8,33,0.00,,---,0.00,cosweather0.1e,2013-07-19 22:30:00,
2013-07-19 15:35:00,82.8,50.0,29.65,NW,321,0.0,4.9,33,0.00,,---,0.00,cosweather0.1e,2013-07-19 22:35:00,
2013-07-19 15:40:00,82.6,50.0,29.65,WNW,285,0.0,6.3,33,0.00,,---,0.00,cosweather0.1e,2013-07-19 22:40:00,
2013-07-19 15:45:00,82.6,50.0,29.65,West,262,0.0,4.0,32,0.00,,---,0.00,cosweather0.1e,2013-07-19 22:45:00,
2013-07-19 15:50:00,82.2,50.0,29.65,WNW,303,0.0,5.4,33,0.00,,---,0.00,cosweather0.1e,2013-07-19 22:50:00,
2013-07-19 15:55:00,82.0,50.0,29.61,NW,310,0.0,4.0,33,0.00,,---,0.00,cosweather0.1e,2013-07-19 22:55:00,
2013-07-19 16:01:00,82.0,50.0,29.61,NW,311,0.0,3.6,33,0.00,,---,0.00,cosweather0.1e,2013-07-19 23:01:00,
2013-07-19 16:06:00,82.0,50.0,29.61,West,281,0.0,6.3,33,0.00,,---,0.00,cosweather0.1e,2013-07-19 23:06:00,
2013-07-19 16:11:00,81.9,51.8,29.61,NW,304,0.0,5.8,34,0.00,,---,0.00,cosweather0.1e,2013-07-19 23:11:00,
2013-07-19 16:16:00,81.9,51.8,29.61,NNW,338,0.0,6.3,34,0.00,,---,0.00,cosweather0.1e,2013-07-19 23:16:00,
2013-07-19 16:21:00,81.7,51.8,29.61,WSW,244,0.0,7.2,34,0.00,,---,0.00,cosweather0.1e,2013-07-19 23:21:00,
2013-07-19 16:26:00,81.5,51.8,29.61,NNW,327,0.0,4.0,34,0.00,,---,0.00,cosweather0.1e,2013-07-19 23:26:00,
2013-07-19 16:31:00,81.5,51.8,29.61,NW,318,0.0,8.1,34,0.00,,---,0.00,cosweather0.1e,2013-07-19 23:31:00,
2013-07-19 16:36:00,81.1,50.0,29.61,NNW,334,0.0,6.3,35,0.00,,---,0.00,cosweather0.1e,2013-07-19 23:36:00,
2013-07-19 16:41:00,81.0,50.0,29.61,NW,307,0.0,8.7,35,0.00,,---,0.00,cosweather0.1e,2013-07-19 23:41:00,
2013-07-19 16:46:00,80.6,51.8,29.61,NW,305,0.0,6.3,36,0.00,,---,0.00,cosweather0.1e,2013-07-19 23:46:00,
2013-07-19 16:51:00,80.2,51.8,29.61,NNW,333,0.0,5.8,36,0.00,,---,0.00,cosweather0.1e,2013-07-19 23:51:00,
2013-07-19 16:56:00,79.9,51.8,29.61,NW,317,0.0,5.8,37,0.00,,---,0.00,cosweather0.1e,2013-07-19 23:56:00,
2013-07-19 17:01:00,79.3,51.8,29.61,WNW,303,0.0,5.8,38,0.00,,---,0.00,cosweather0.1e,2013-07-20 00:01:00,
2013-07-19 17:06:00,79.2,51.8,29.61,NNW,327,0.0,7.6,39,0.00,,---,0.00,cosweather0.1e,2013-07-20 00:06:00,
2013-07-19 17:11:00,79.0,51.8,29.61,NNW,327,0.0,10.1,39,0.00,,---,0.00,cosweather0.1e,2013-07-20 00:11:00,
2013-07-19 17:16:00,78.6,51.8,29.61,NNW,342,0.0,5.8,40,0.00,,---,0.00,cosweather0.1e,2013-07-20 00:16:00,
2013-07-19 17:21:00,78.3,53.6,29.61,WNW,299,0.0,8.7,41,0.00,,---,0.00,cosweather0.1e,2013-07-20 00:21:00,
2013-07-19 17:26:00,77.9,53.6,29.61,NW,315,0.0,3.1,41,0.00,,---,0.00,cosweather0.1e,2013-07-20 00:26:00,
2013-07-19 17:31:00,77.7,51.8,29.61,NNW,344,0.0,8.7,41,0.00,,---,0.00,cosweather0.1e,2013-07-20 00:31:00,
2013-07-19 17:36:00,77.5,51.8,29.61,NNW,334,0.0,8.3,41,0.00,,---,0.00,cosweather0.1e,2013-07-20 00:36:00,
2013-07-19 17:41:00,77.2,51.8,29.61,NNW,345,0.0,6.3,42,0.00,,---,0.00,cosweather0.1e,2013-07-20 00:41:00,
2013-07-19 17:46:00,76.8,51.8,29.61,NNW,335,0.0,8.1,42,0.00,,---,0.00,cosweather0.1e,2013-07-20 00:46:00,
2013-07-19 17:51:00,76.3,53.6,29.61,NNW,330,0.0,8.1,43,0.00,,---,0.00,cosweather0.1e,2013-07-20 00:51:00,
2013-07-19 17:56:00,75.9,51.8,29.61,NW,324,0.0,6.3,43,0.00,,---,0.00,cosweather0.1e,2013-07-20 00:56:00,
2013-07-19 18:01:00,75.9,51.8,29.61,North,357,0.0,11.0,43,0.00,,---,0.00,cosweather0.1e,2013-07-20 01:01:00,
2013-07-19 18:06:00,75.9,51.8,29.61,NW,317,0.0,8.3,43,0.00,,---,0.00,cosweather0.1e,2013-07-20 01:06:00,
2013-07-19 18:11:00,75.7,51.8,29.61,WNW,300,0.0,8.1,43,0.00,,---,0.00,cosweather0.1e,2013-07-20 01:11:00,
2013-07-19 18:16:00,75.4,51.8,29.61,NNW,337,0.0,4.9,43,0.00,,---,0.00,cosweather0.1e,2013-07-20 01:16:00,
2013-07-19 18:21:00,75.2,51.8,29.61,NNW,333,0.0,8.1,43,0.00,,---,0.00,cosweather0.1e,2013-07-20 01:21:00,
2013-07-19 18:26:00,74.8,51.8,29.61,NW,315,0.0,6.7,44,0.00,,---,0.00,cosweather0.1e,2013-07-20 01:26:00,
2013-07-19 18:31:00,74.3,51.8,29.61,NW,308,0.0,7.6,45,0.00,,---,0.00,cosweather0.1e,2013-07-20 01:31:00,
2013-07-19 18:36:00,73.9,51.8,29.61,NW,313,0.0,8.7,45,0.00,,---,0.00,cosweather0.1e,2013-07-20 01:36:00,
2013-07-19 18:41:00,73.6,51.8,29.61,West,281,0.0,8.7,46,0.00,,---,0.00,cosweather0.1e,2013-07-20 01:41:00,
2013-07-19 18:47:00,73.4,51.8,29.61,NNW,341,0.0,7.6,46,0.00,,---,0.00,cosweather0.1e,2013-07-20 01:47:00,
2013-07-19 18:52:00,73.2,51.8,29.61,NNW,327,0.0,5.4,47,0.00,,---,0.00,cosweather0.1e,2013-07-20 01:52:00,
2013-07-19 18:57:00,73.0,51.8,29.61,NNW,335,0.0,8.3,47,0.00,,---,0.00,cosweather0.1e,2013-07-20 01:57:00,
2013-07-19 19:02:00,72.7,51.8,29.61,WNW,302,0.0,4.9,48,0.00,,---,0.00,cosweather0.1e,2013-07-20 02:02:00,
2013-07-19 19:07:00,72.3,51.8,29.61,NNW,327,0.0,3.1,48,0.00,,---,0.00,cosweather0.1e,2013-07-20 02:07:00,
2013-07-19 19:12:00,72.1,51.8,29.61,NW,312,0.0,10.1,48,0.00,,---,0.00,cosweather0.1e,2013-07-20 02:12:00,
2013-07-19 19:17:00,71.8,51.8,29.61,NW,314,0.0,2.7,49,0.00,,---,0.00,cosweather0.1e,2013-07-20 02:17:00,
2013-07-19 19:22:00,71.4,51.8,29.61,North,0,0.0,5.4,50,0.00,,---,0.00,cosweather0.1e,2013-07-20 02:22:00,
2013-07-19 19:27:00,71.1,51.8,29.61,NW,304,0.0,5.8,51,0.00,,---,0.00,cosweather0.1e,2013-07-20 02:27:00,
2013-07-19 19:32:00,70.7,51.8,29.61,North,350,0.0,4.9,51,0.00,,---,0.00,cosweather0.1e,2013-07-20 02:32:00,
2013-07-19 19:37:00,70.7,51.8,29.61,NW,316,0.0,4.0,51,0.00,,---,0.00,cosweather0.1e,2013-07-20 02:37:00,
2013-07-19 19:42:00,70.5,50.0,29.65,NNW,335,0.0,6.3,51,0.00,,---,0.00,cosweather0.1e,2013-07-20 02:42:00,
2013-07-19 19:54:00,70.0,51.8,29.65,NW,315,0.0,7.6,52,0.00,,---,0.00,cosweather0.1e,2013-07-20 02:54:00,
2013-07-19 19:59:00,69.6,51.8,29.65,NNW,333,0.0,4.9,53,0.00,,---,0.00,cosweather0.1e,2013-07-20 02:59:00,
2013-07-19 20:04:00,69.4,51.8,29.65,NW,310,0.0,0.0,53,0.00,,---,0.00,cosweather0.1e,2013-07-20 03:04:00,
2013-07-19 20:09:00,69.4,51.8,29.65,NNW,337,0.0,4.0,53,0.00,,---,0.00,cosweather0.1e,2013-07-20 03:09:00,
2013-07-19 20:14:00,69.1,51.8,29.65,NW,309,0.0,3.6,54,0.00,,---,0.00,cosweather0.1e,2013-07-20 03:14:00,
2013-07-19 20:19:00,69.1,51.8,29.65,WNW,300,0.0,3.6,54,0.00,,---,0.00,cosweather0.1e,2013-07-20 03:19:00,
2013-07-19 20:24:00,68.9,51.8,29.65,NW,311,0.0,2.7,54,0.00,,---,0.00,cosweather0.1e,2013-07-20 03:24:00,
2013-07-19 20:29:00,68.7,51.8,29.65,NNW,327,0.0,4.0,55,0.00,,---,0.00,cosweather0.1e,2013-07-20 03:29:00,
2013-07-19 20:34:00,68.4,51.8,29.65,NNW,338,0.0,4.0,55,0.00,,---,0.00,cosweather0.1e,2013-07-20 03:34:00,
2013-07-19 20:39:00,67.8,53.6,29.65,NNW,331,0.0,5.4,58,0.00,,---,0.00,cosweather0.1e,2013-07-20 03:39:00,
2013-07-19 20:44:00,67.3,53.6,29.65,North,0,0.0,7.2,58,0.00,,---,0.00,cosweather0.1e,2013-07-20 03:44:00,
2013-07-19 20:49:00,66.7,51.8,29.65,NW,318,0.0,6.3,59,0.00,,---,0.00,cosweather0.1e,2013-07-20 03:49:00,
2013-07-19 20:54:00,66.6,51.8,29.65,NW,324,0.0,3.6,59,0.00,,---,0.00,cosweather0.1e,2013-07-20 03:54:00,
2013-07-19 20:59:00,66.4,51.8,29.65,WNW,300,0.0,3.6,59,0.00,,---,0.00,cosweather0.1e,2013-07-20 03:59:00,
2013-07-19 21:01:00,66.4,51.8,29.65,NNW,332,0.0,5.8,59,0.00,,---,0.00,cosweather0.1e,2013-07-20 04:01:00,
2013-07-19 21:06:00,66.2,51.8,29.65,NNW,331,0.0,3.1,59,0.00,,---,0.00,cosweather0.1e,2013-07-20 04:06:00,
2013-07-19 21:11:00,66.0,51.8,29.65,NW,313,0.0,3.1,61,0.00,,---,0.00,cosweather0.1e,2013-07-20 04:11:00,
2013-07-19 21:17:00,65.7,51.8,29.65,NW,310,0.0,4.9,60,0.00,,---,0.00,cosweather0.1e,2013-07-20 04:17:00,
2013-07-19 21:22:00,65.3,51.8,29.65,WNW,303,0.0,5.8,61,0.00,,---,0.00,cosweather0.1e,2013-07-20 04:22:00,
2013-07-19 21:27:00,65.3,51.8,29.65,WNW,301,0.0,4.0,61,0.00,,---,0.00,cosweather0.1e,2013-07-20 04:27:00,
2013-07-19 21:32:00,65.3,51.8,29.65,West,277,0.0,3.1,61,0.00,,---,0.00,cosweather0.1e,2013-07-20 04:32:00,
2013-07-19 21:37:00,65.1,50.0,29.65,NW,309,0.0,6.3,61,0.00,,---,0.00,cosweather0.1e,2013-07-20 04:37:00,
2013-07-19 21:42:00,64.6,51.8,29.65,NNW,336,0.0,5.4,62,0.00,,---,0.00,cosweather0.1e,2013-07-20 04:42:00,
2013-07-19 21:47:00,64.4,51.8,29.65,NW,312,0.0,4.0,63,0.00,,---,0.00,cosweather0.1e,2013-07-20 04:47:00,
2013-07-19 21:52:00,64.4,51.8,29.65,NW,313,0.0,5.4,63,0.00,,---,0.00,cosweather0.1e,2013-07-20 04:52:00,
2013-07-19 21:57:00,64.2,51.8,29.68,NW,317,0.0,7.2,63,0.00,,---,0.00,cosweather0.1e,2013-07-20 04:57:00,
2013-07-19 22:02:00,63.9,51.8,29.68,NW,318,0.0,3.6,65,0.00,,---,0.00,cosweather0.1e,2013-07-20 05:02:00,
2013-07-19 22:07:00,63.7,51.8,29.68,NW,307,0.0,5.4,65,0.00,,---,0.00,cosweather0.1e,2013-07-20 05:07:00,
2013-07-19 22:12:00,63.7,51.8,29.68,NNW,331,0.0,2.7,65,0.00,,---,0.00,cosweather0.1e,2013-07-20 05:12:00,
2013-07-19 22:17:00,63.9,51.8,29.68,NW,324,0.0,0.0,65,0.00,,---,0.00,cosweather0.1e,2013-07-20 05:17:00,
2013-07-19 22:22:00,64.0,51.8,29.68,WNW,302,0.0,4.9,65,0.00,,---,0.00,cosweather0.1e,2013-07-20 05:22:00,
2013-07-19 22:27:00,64.0,51.8,29.68,NW,311,0.0,2.2,65,0.00,,---,0.00,cosweather0.1e,2013-07-20 05:27:00,
2013-07-19 22:32:00,64.0,51.8,29.68,NW,321,0.0,2.7,64,0.00,,---,0.00,cosweather0.1e,2013-07-20 05:32:00,
2013-07-19 22:37:00,64.0,51.8,29.68,NNW,338,0.0,2.2,64,0.00,,---,0.00,cosweather0.1e,2013-07-20 05:37:00,
2013-07-19 22:42:00,63.7,51.8,29.68,North,9,0.0,2.7,64,0.00,,---,0.00,cosweather0.1e,2013-07-20 05:42:00,
2013-07-19 22:47:00,63.5,51.8,29.68,NW,325,0.0,2.2,65,0.00,,---,0.00,cosweather0.1e,2013-07-20 05:47:00,
2013-07-19 22:52:00,63.5,51.8,29.68,North,353,0.0,2.7,65,0.00,,---,0.00,cosweather0.1e,2013-07-20 05:52:00,
2013-07-19 22:57:00,63.3,50.0,29.68,NNE,12,0.0,3.1,65,0.00,,---,0.00,cosweather0.1e,2013-07-20 05:57:00,
2013-07-19 23:02:00,63.1,50.0,29.68,North,353,0.0,3.1,65,0.00,,---,0.00,cosweather0.1e,2013-07-20 06:02:00,
2013-07-19 23:07:00,63.1,50.0,29.68,North,0,0.0,0.0,65,0.00,,---,0.00,cosweather0.1e,2013-07-20 06:07:00,
2013-07-19 23:12:00,63.1,50.0,29.68,NNW,327,0.0,0.0,65,0.00,,---,0.00,cosweather0.1e,2013-07-20 06:12:00,
2013-07-19 23:17:00,63.0,50.0,29.68,NNW,346,0.0,0.0,65,0.00,,---,0.00,cosweather0.1e,2013-07-20 06:17:00,
2013-07-19 23:22:00,63.0,51.8,29.68,North,353,0.0,0.0,66,0.00,,---,0.00,cosweather0.1e,2013-07-20 06:22:00,
2013-07-19 23:27:00,63.0,50.0,29.68,North,353,0.0,0.0,65,0.00,,---,0.00,cosweather0.1e,2013-07-20 06:27:00,
2013-07-19 23:32:00,63.0,51.8,29.68,North,353,0.0,0.0,66,0.00,,---,0.00,cosweather0.1e,2013-07-20 06:32:00,
2013-07-19 23:37:00,63.1,50.0,29.68,NNW,327,0.0,0.0,65,0.00,,---,0.00,cosweather0.1e,2013-07-20 06:37:00,
2013-07-19 23:42:00,63.0,50.0,29.68,NNW,335,0.0,0.0,65,0.00,,---,0.00,cosweather0.1e,2013-07-20 06:42:00,
2013-07-19 23:47:00,63.0,50.0,29.68,NNW,346,0.0,0.0,65,0.00,,---,0.00,cosweather0.1e,2013-07-20 06:47:00,
2013-07-19 23:52:00,62.8,51.8,29.68,North,350,0.0,2.2,66,0.00,,---,0.00,cosweather0.1e,2013-07-20 06:52:00,
2013-07-19 23:57:00,62.6,51.8,29.68,North,357,0.0,2.7,66,0.00,,---,0.00,cosweather0.1e,2013-07-20 06:57:00,